Regional Weather Roundup
Issued by NWS

Home | Current Version | Previous Version | Text Only | Print | Product List | Glossary Off
Versions: 1 2 3 4 5 6 7 8 9 10 11 12 13 14 15 16 17 18 19 20 21 22 23 24 25 26 27 28 29 30 31 32 33 34 35 36 37 38 39 40 41 42 43 44 45 46 47 48 49 50

339
ASUS43 KMKX 171810
RWRWI

WISCONSIN REGIONAL WEATHER ROUNDUP
NATIONAL WEATHER SERVICE MILWAUKEE/SULLIVAN WI
1200 PM CST SAT FEB 17 2018

NOTE: "FAIR" INDICATES FEW OR NO CLOUDS BELOW 12,000 FEET WITH NO
SIGNIFICANT WEATHER AND/OR OBSTRUCTIONS TO VISIBILITY.

WIZ001-002-006>008-014>016-023>028-171900-
NORTHWEST WISCONSIN

CITY           SKY/WX    TMP DP  RH WIND       PRES   REMARKS
SUPERIOR ARPT  FAIR      29  16  58 W14       29.82F WCI  18
6HR MIN TEMP:  18; 6HR MAX TEMP:  29;

ASHLAND        FAIR      27  16  63 SW15      29.80F WCI  15
6HR MIN TEMP:  18; 6HR MAX TEMP:  28;

HAYWARD        FAIR      28  17  63 SW9       29.81F WCI  19
6HR MIN TEMP:  17; 6HR MAX TEMP:  28; 6HR PCP: TRACE;

SIREN          FAIR      30  19  61 W10       29.85S WCI  21
6HR MIN TEMP:  21; 6HR MAX TEMP:  30;

CUMBERLAND     CLOUDY    28  19  69 W9        29.84F WCI  20
RICE LAKE      CLOUDY    28  21  76 SW8       29.87F WCI  20
6HR MIN TEMP:  17; 6HR MAX TEMP:  28;

CHETEK         CLOUDY    28  21  75 SW6       29.86F WCI  21
6HR MIN TEMP:  17; 6HR MAX TEMP:  28;

LADYSMITH      CLOUDY    26  20  78 SW7       29.86F WCI  18
6HR MIN TEMP:  13; 6HR MAX TEMP:  26;

EAU CLAIRE     LGT SNOW  25  21  85 SW7       29.88S VSB 1   WCI  17
6HR MIN TEMP:  16; 6HR MAX TEMP:  25; 6HR PCP:  0.03;

MENOMONIE      CLOUDY    28  22  78 SW6       29.89S WCI  22
6HR MIN TEMP:  21; 6HR MAX TEMP:  28;

NEW RICHMOND   CLOUDY    30  22  70 SW9       29.87F WCI  22
6HR MIN TEMP:  21; 6HR MAX TEMP:  30;

OSCEOLA        CLOUDY    31  22  70 SW7       29.91S WCI  24
6HR MIN TEMP:  20; 6HR MAX TEMP:  31;

$$

WIZ003>005-009-010-017-018-171900-
NORTH CENTRAL WISCONSIN

CITY           SKY/WX    TMP DP  RH WIND       PRES   REMARKS
MANITOWISH WTR FAIR      24  15  68 SW13      29.77S WCI  12
6HR MIN TEMP:  13; 6HR MAX TEMP:  24;

ARBOR VITAE    PTSUNNY   26  17  68 W10       29.77F WCI  15
6HR MIN TEMP:  12; 6HR MAX TEMP:  26;

WOODRUFF       PTSUNNY   26  17  68 W10       29.77F WCI  15
6HR MIN TEMP:  12; 6HR MAX TEMP:  26;

RHINELANDER    CLOUDY    22  16  78 SW12      29.80F WCI  10
6HR MIN TEMP:  12; 6HR MAX TEMP:  22; 6HR PCP: TRACE;

EAGLE RIVER    FAIR      23  11  60 SW8       29.77F WCI  14
6HR MIN TEMP:  12; 6HR MAX TEMP:  23;

LAND O LAKES   FAIR      26  13  58 SW8       29.77F WCI  17
6HR MIN TEMP:  12; 6HR MAX TEMP:  26;

PHILLIPS       CLOUDY    23  17  77 SW12      29.80F WCI  12
6HR MIN TEMP:  13; 6HR MAX TEMP:  23;

TOMAHAWK       CLOUDY    22  16  76 CALM      29.82F HAZE
6HR MIN TEMP:   9; 6HR MAX TEMP:  22;

MEDFORD        LGT SNOW  20  17  87 SW7       29.83F WCI  11
6HR MIN TEMP:  12; 6HR MAX TEMP:  20;

MERRILL        LGT SNOW  22  18  87 W5        29.86S VSB 1   WCI  15
6HR MIN TEMP:  13; 6HR MAX TEMP:  22;

$$

WIZ029-030-035-036-043>047-171900-
CENTRAL WISCONSIN

CITY           SKY/WX    TMP DP  RH WIND       PRES   REMARKS
WAUSAU         LGT SNOW  21  18  88 SW9       29.85F VSB 3/4 WCI  11
6HR MIN TEMP:  13; 6HR MAX TEMP:  21; 6HR PCP: TRACE;

MOSINEE        LGT SNOW  21  19  93 SW9       29.88F VSB 1   WCI  11
MARSHFIELD     SNOW      22  19  89 SW10      29.85F VSB 1/2 WCI  11
6HR MIN TEMP:  15; 6HR MAX TEMP:  22; 6HR PCP: TRACE;

STEVENS POINT  LGT SNOW  20  17  88 SW9       29.90S VSB 1   WCI  10
6HR MIN TEMP:  15; 6HR MAX TEMP:  22;

WAUPACA        LGT SNOW  27  16  62 SW12      29.93S WCI  17
6HR MIN TEMP:  19; 6HR MAX TEMP:  28;

WAUTOMA        LGT SNOW  24  17  74 SW12      29.92F WCI  13
6HR MIN TEMP:  16; 6HR MAX TEMP:  26;

WISC RAPIDS    LGT SNOW  23  18  81 SW8       29.91F VSB 3/4 WCI  14
6HR MIN TEMP:  19; 6HR MAX TEMP:  25; 6HR PCP:  0.01;

CAMP DOUGLAS   LGT SNOW  27  18  69 SW12      29.90F WCI  16
                                      6HR PCP: TRACE;

$$

WIZ011>013-019>022-031-037>040-048>050-171900-
NORTHEAST WISCONSIN

CITY           SKY/WX    TMP DP  RH WIND       PRES   REMARKS
ANTIGO         LGT SNOW  20  18  89 SW8       29.84F VSB 3/4 WCI  11
6HR MIN TEMP:  12; 6HR MAX TEMP:  20;

SHAWANO        MIX PCPN  27  21  77 SW8       29.90F WCI  19
6HR MIN TEMP:  18; 6HR MAX TEMP:  28;

OCONTO         CLOUDY    27  12  54 SW12G18   29.90F WCI  16
6HR MIN TEMP:  17; 6HR MAX TEMP:  27;

STURGEON BAY   CLOUDY    27  12  53 SW14G22   29.89F WCI  16
6HR MIN TEMP:  18; 6HR MAX TEMP:  27;

GREEN BAY      CLOUDY    26  11  52 SW13      29.92F WCI  15
6HR MIN TEMP:  18; 6HR MAX TEMP:  26;

MANITOWOC      CLOUDY    29   9  43 SW10      29.94F WCI  20
6HR MIN TEMP:  18; 6HR MAX TEMP:  29;

APPLETON       FLURRIES  25   9  50 SW15      29.90F WCI  12
CLINTONVILLE   CLOUDY    26  13  58 SW9       29.91S WCI  16
6HR MIN TEMP:  17; 6HR MAX TEMP:  26;

OSHKOSH        CLOUDY    26  12  55 SW13      29.93F WCI  15
6HR MIN TEMP:  17; 6HR MAX TEMP:  26;

$$

WIZ032>034-041-042-053>061-171900-
SOUTHWEST WISCONSIN

CITY           SKY/WX    TMP DP  RH WIND       PRES   REMARKS
LA CROSSE      SNOW      25  22  88 S10       29.93F VSB 1/2 WCI  15
6HR MIN TEMP:  21; 6HR MAX TEMP:  27; 6HR PCP:  0.04;

SPARTA         LGT SNOW  25  21  87 SW6       29.93S VSB 1   WCI  18
6HR MIN TEMP:  21; 6HR MAX TEMP:  27;

VIROQUA        CLOUDY    23  20  89 S13       29.90F WCI  11
6HR MIN TEMP:  17; 6HR MAX TEMP:  24;

BOSCOBEL       CLOUDY    30  15  53 VRB7      29.97F WCI  23
6HR MIN TEMP:  20; 6HR MAX TEMP:  30;

PRAIRIE DU CHI SNOW      26  21  84 CALM      29.95F VSB 1/2
6HR MIN TEMP:  21; 6HR MAX TEMP:  27;

PLATTEVILLE    FAIR      27  19  72 S6        29.94F WCI  20
6HR MIN TEMP:  16; 6HR MAX TEMP:  27;

$$

WIZ056-057-062-063-064-067-068-171900-
SOUTH CENTRAL WISCONSIN

CITY           SKY/WX    TMP DP  RH WIND       PRES   REMARKS
REEDSBURG      PTSUNNY   27  16  64 S6        29.93F WCI  20
6HR MIN TEMP:  18; 6HR MAX TEMP:  27;

BARABOO/DELLS  CLOUDY    24  19  81 CALM      29.93F
6HR MIN TEMP:  19; 6HR MAX TEMP:  26;

LONE ROCK      CLOUDY    29  15  56 CALM      29.95F
6HR MIN TEMP:  19; 6HR MAX TEMP:  29;

MINERAL POINT  FAIR      30  21  69 S8        29.92F WCI  23
MADISON        FLURRIES  27  14  58 S9        29.94F WCI  18
6HR MIN TEMP:  17; 6HR MAX TEMP:  27; 6HR PCP: TRACE;

MIDDLETON      CLOUDY    30  15  54 SW5       29.94F WCI  25
6HR MIN TEMP:  19; 6HR MAX TEMP:  30;

WATERTOWN      PTSUNNY   28  14  56 S9        29.95F WCI  19
6HR MIN TEMP:  16; 6HR MAX TEMP:  28;

MONROE         FAIR      30  21  69 S14       29.91F WCI  20
JANESVILLE     CLOUDY    28  18  64 S8        29.98F WCI  20
$$

WIZ051-052-058>065-066-070>072-171900-
SOUTHEAST WISCONSIN

CITY           SKY/WX    TMP DP  RH WIND       PRES   REMARKS
MILWAUKEE      CLOUDY    31  11  43 SW9       29.99F WCI  23
6HR MIN TEMP:  19; 6HR MAX TEMP:  31;

WAUKESHA       MOSUNNY   28   9  43 SW13G18   29.98F WCI  18
MILWAUKEE/TIMM CLOUDY    30   5  34 SW8       29.99F WCI  23
RACINE         CLOUDY    31  14  49 W9        30.01F WCI  23
6HR MIN TEMP:  17; 6HR MAX TEMP:  31;

BURLINGTON     FAIR      30  18  59 SW8       29.98F WCI  23
6HR MIN TEMP:  15; 6HR MAX TEMP:  30;

KENOSHA        CLOUDY    32  17  54 SW12      30.00F WCI  23
6HR MIN TEMP:  16; 6HR MAX TEMP:  32;

FOND DU LAC    PTSUNNY   27  11  51 SW13      29.94F WCI  16
6HR MIN TEMP:  19; 6HR MAX TEMP:  27;

SHEBOYGAN      CLOUDY    28  10  46 SW14      29.95F WCI  17
6HR MIN TEMP:  18; 6HR MAX TEMP:  28;

WEST BEND      PTSUNNY   30  10  43 SW9       29.95F WCI  22
JUNEAU         PTSUNNY   26  13  58 SW12      29.96F WCI  15
6HR MIN TEMP:  16; 6HR MAX TEMP:  26;

$$

LSZ147-162-171900-
LAKE SUPERIOR

STATION/POSITION TIME  TEMP    WIND        PRES    WAVE
                       AIR SEA DIR/SP/G            HT/PER
                 (UTC) (F)     (DEG/KT/KT) (MB)    (FT/S)
DEVILS ISLAND    1800   24     240/ 20/ 24 1009.2F
SAXON HARBOR     1730   28     200/ 12/ 18 1008.8S
$$

LMZ867-665-643>646-171900-
LAKE MICHIGAN

STATION/POSITION TIME  TEMP    WIND        PRES



USA.gov is the U.S. government's official web portal to all federal, state and local government web resources and services.